User: anonymous   Login
Location: Newsoms
(36.6240°N, 77.1250°W)
Time: 04:38:51
(UTC-05:00)
Language:

BREEZE-M DEB (TANK) - Orbit

View from above orbital plane
View from above orbital plane
View from above satellite
View from above satellite

Ground track
Ground track

The orbit data is extracted from the following two-line orbital elements,

1 29649U 06056B   14351.64029620  .00003419  00000-0  62198-3 0   739
2 29649 049.4743 178.0966 5404249 314.2829 030.1620 04.95618170142311
Epoch (UTC): 17 December 2014 15:22:01
Eccentricity: 0.5404249
inclination: 49.4743°
perigee height: 300 km
apogee height: 16006 km
right ascension of ascending node: 178.0966°
argument of perigee: 314.2829°
revolutions per day: 4.95618170
mean anomaly at epoch: 30.1620°
orbit number at epoch: 14231

The dashed part of the orbit path shows where the satellite is in the earth's shadow,  

DLR